FW4441 Weather Reports


time (UTC)temp
C
wind
direction
speed
KPH
gust
KPH
rain 1hr
cm
rain 24hr
cm
rain mn
cm
humidity
%
barometer
mb
20260509004530 20 256 16.1 27.4 0.00 0.00 0.00 42 1017.1
20260509001531 21 259 17.7 33.8 0.00 0.00 0.00 39 1016.8
20260509000041 21 253 16.1 35.4 0.00 0.00 0.00 39 1016.7
20260508234530 21 254 17.7 35.4 0.00 0.00 0.00 39 1016.7
20260508233031 20 250 17.7 38.6 0.00 0.00 0.00 39 1016.6
20260508231532 21 250 20.9 38.6 0.00 0.00 0.00 40 1016.6
20260508230029 20 254 19.3 35.4 0.00 0.00 0.00 42 1016.7
20260508224532 20 255 20.9 37.0 0.00 0.00 0.00 42 1016.8
20260508223107 20 252 24.1 40.2 0.00 0.00 0.00 43 1016.7
20260508221605 20 252 24.1 45.1 0.00 0.00 0.00 44 1016.7
20260508214530 20 256 19.3 33.8 0.00 0.00 0.00 45 1016.8
20260508213032 19 254 20.9 40.2 0.00 0.00 0.00 46 1016.9
20260508211529 18 256 24.1 45.1 0.00 0.00 0.00 47 1016.8
20260508210031 19 253 24.1 51.5 0.00 0.00 0.00 47 1016.8
20260508204530 19 253 22.5 53.1 0.00 0.00 0.00 47 1016.9
20260508201530 18 265 22.5 41.8 0.00 0.00 0.00 48 1016.7
20260508200054 19 268 19.3 38.6 0.00 0.00 0.00 49 1016.8
20260508194532 19 247 16.1 33.8 0.00 0.00 0.00 49 1016.8
20260508193031 18 251 14.5 35.4 0.00 0.00 0.00 51 1017.0
20260508191530 17 266 16.1 35.4 0.00 0.00 0.00 53 1017.0
20260508190030 15 253 17.7 33.8 0.00 0.00 0.00 57 1017.1
20260508184531 14 256 17.7 35.4 0.00 0.00 0.00 59 1017.2
20260508183030 12 296 11.3 22.5 0.00 0.00 0.00 62 1017.4
20260508181531 12 263 9.7 20.9 0.00 0.00 0.00 64 1017.4
20260508180032 11 285 9.7 20.9 0.00 0.00 0.00 64 1017.1
20260508174529 11 276 9.7 25.7 0.00 0.00 0.00 64 1017.2
20260508173029 11 277 9.7 22.5 0.00 0.00 0.00 64 1016.9
20260508171535 12 280 8.0 19.3 0.00 0.00 0.00 64 1016.7
20260508170029 12 280 11.3 30.6 0.00 0.00 0.00 64 1016.5
20260508164532 12 272 12.9 27.4 0.00 0.00 0.00 65 1016.5
20260508163029 12 270 16.1 30.6 0.00 0.00 0.00 64 1016.7
20260508161530 13 277 14.5 29.0 0.00 0.00 0.00 64 1016.7
20260508160030 13 281 16.1 30.6 0.00 0.00 0.00 64 1016.6
20260508154532 12 279 17.7 35.4 0.00 0.00 0.00 65 1016.6
20260508153030 12 271 16.1 33.8 0.00 0.00 0.00 66 1016.5
20260508151605 12 264 14.5 29.0 0.00 0.00 0.00 66 1016.3
20260508150031 12 259 12.9 29.0 0.00 0.00 0.00 66 1016.1
20260508144530 11 319 6.4 14.5 0.00 0.00 0.00 65 1015.9
20260508143031 11 348 9.7 19.3 0.00 0.00 0.00 65 1015.6
20260508141604 11 359 12.9 22.5 0.00 0.00 0.00 65 1015.4
20260508140032 11 360 11.3 22.5 0.00 0.00 0.00 67 1015.2
20260508133156 11 10 9.7 14.5 0.00 0.00 0.00 69 1014.9
20260508131530 11 332 8.0 16.1 0.00 0.00 0.00 69 1014.8
20260508130031 11 329 9.7 16.1 0.00 0.00 0.00 68 1014.7
20260508124533 10 336 8.0 16.1 0.00 0.00 0.00 67 1014.7
20260508121609 10 337 6.4 12.9 0.00 0.00 0.00 64 1014.5
20260508120032 10 345 6.4 14.5 0.00 0.00 0.00 64 1014.5
20260508111647 10 19 6.4 11.3 0.00 0.00 0.00 62 1014.1
20260508110149 10 32 4.8 8.0 0.00 0.00 0.00 61 1014.1
20260508101547 10 38 4.8 9.7 0.00 0.00 0.00 61 1014.1
20260508100029 10 38 6.4 11.3 0.00 0.00 0.00 60 1014.1
20260508094532 10 24 6.4 9.7 0.00 0.00 0.00 59 1014.0
20260508093029 10 22 6.4 9.7 0.00 0.00 0.00 57 1013.9
20260508090032 11 37 4.8 9.7 0.00 0.00 0.00 54 1013.9
20260508084532 11 39 3.2 8.0 0.00 0.00 0.00 54 1013.9
20260508083030 11 11 3.2 6.4 0.00 0.00 0.00 53 1013.9
20260508081530 12 65 3.2 6.4 0.00 0.00 0.00 53 1013.9
20260508080030 12 35 0.0 4.8 0.00 0.00 0.00 53 1013.9
20260508074533 12 194 1.6 6.4 0.00 0.00 0.00 53 1013.9
20260508071531 12 105 0.0 4.8 0.00 0.00 0.00 53 1013.9
20260508070043 12 245 0.0 6.4 0.00 0.00 0.00 53 1013.8
20260508064532 12 172 1.6 8.0 0.00 0.00 0.00 51 1013.8
20260508061530 11 295 1.6 9.7 0.00 0.00 0.00 48 1013.8
20260508060029 12 312 1.6 6.4 0.00 0.00 0.00 46 1013.9
20260508054531 11 313 0.0 6.4 0.00 0.00 0.00 46 1013.8
20260508051606 12 282 4.8 8.0 0.00 0.00 0.00 43 1013.9
20260508044607 13 244 3.2 9.7 0.00 0.00 0.00 43 1013.7
20260508043028 13 217 3.2 8.0 0.00 0.00 0.00 44 1013.7
20260508041530 13 235 4.8 11.3 0.00 0.00 0.00 43 1013.6
20260508034532 15 238 8.0 20.9 0.00 0.00 0.00 37 1013.3
20260508031533 16 229 8.0 14.5 0.00 0.00 0.00 32 1013.0
20260508030030 16 219 8.0 16.1 0.00 0.00 0.00 30 1013.0
20260508023031 17 255 12.9 24.1 0.00 0.00 0.00 28 1012.8
20260508021608 18 261 12.9 24.1 0.00 0.00 0.00 27 1012.7
20260508020028 18 259 14.5 33.8 0.00 0.00 0.00 26 1012.6
20260508013030 20 255 17.7 33.8 0.00 0.00 0.00 23 1012.5
20260508011531 21 258 17.7 35.4 0.00 0.00 0.00 23 1012.6
20260508010107 21 265 17.7 37.0 0.00 0.00 0.00 22 1012.7